STARLINK-32869, 62859

Orbit data source: Space-Track

STARLINK-32869, 62859 is a payload satellite owned by SpaceX/Seattle (US) in LEO that was launched on Sat, 01 Feb 2025 UTC via an FALCON 9 launch vehicle from the Air Force Western Test Range (AFWTR). Payload-class satellites include a variety of spacecraft equipped with specific instruments for various scientific and technological missions. These include communications satellites like Starlink; space stations such as the ISS; scientific satellites like the Hubble; Earth observation satellites from companies like Planet Labs, Umbra, and HawkEye 360; GPS; miniature CubeSats for education and research; and military/defense satellites.

Loading next visibility...
Identifier
62859, 2025-022F
Orbit
LEO
Country
Flag of USUS
Related business
Manufacturer
SpaceX/Seattle
Mission
Operational Commercial Communications
Bus & Motor
STARLINK V2M, Unknown motor
Mass
730 kg wet, ~700 kg dry
Launch date (UTC)
2025-02-01 (11 months ago)
Launch vehicle
FALCON 9
Launch site
Air Force Western Test Range (AFWTR)
Object type
Payload
Rocket body
Debris
Shape & HBR
Box + 2 Pan, 17.7 m
Radar Cross Section
33.884 m², Large (>1 m²)

Expand to show TLE details & history
Last TLE update: 21 hours ago

TLE from 21 hours ago
0 STARLINK-32869
1 62859U 25022F   25351.86045311  .00037609  00000-0  12753-2 0  9990
2 62859  53.1574 149.5522 0001147  80.3997 279.7133 15.30203836 49370
Epoch: 2025-12-17T20:39Z
TLE epoch observation values (Epoch: 2025-12-17T20:39:03.148Z)
Latitude
-0.00006°
Longitude
113.06479°
Altitude
475.971 km
Speed
7.629 km/s
True Right ascension
09h 58m 12s
True Declination
0° 00' 00"
Sunlit
Object was in full shadow at epoch
Visualization orbit readout
Latitude
Unknown
Longitude
Unknown
Altitude
Unknown
Speed
Unknown
Apparent Right ascension
Unknown
Apparent Declination
Unknown
Sunlit
N/A
Visualization observer readout
Local Sidereal Time
16:06:06
Azimuth
Unknown
Elevation
Unknown
Doppler factor
Unknown
Orbital elements
Apogee altitude
476.247 km
Perigee altitude
474.674 km
Semi-major axis
6,853.597 km
Eccentricity
0.00011
Inclination
53.1574°
RAAN
149.5522°
Arg. of periapsis
80.3997°
True anomaly
279.70034°
Mean anomaly
279.7133°
Eccentric anomaly
279.70682°
Mean motion
3.8253 °/min
Orbital period
94.11 mins
BSTAR
0.0012753
Loading maneuver chart data...
Computing Atmospheric mass density...
Loading historical data...
Loading historical data...
Loading historical data...
Loading historical data...
Loading historical data...
Loading historical data...
Loading historical data...

Documentation

Showing up to 5 results
|